Time,TemperatureF,DewpointF,PressureIn,WindDirection,WindDirectionDegrees,WindSpeedMPH,WindSpeedGustMPH,Humidity,HourlyPrecipIn,Conditions,Clouds,dailyrainin,SoftwareType,DateUTC
2013-02-20 00:01:00,45.0,17.0,-100.00,South,176,3.0,4.0,32,-99.99,,,-99.99,,2013-02-20 00:01:00,
2013-02-20 00:11:00,45.0,16.0,-100.00,ESE,122,4.0,4.0,30,-99.99,,,-99.99,,2013-02-20 00:11:00,
2013-02-20 00:21:00,45.0,16.0,-100.00,ESE,122,4.0,4.0,31,-99.99,,,-99.99,,2013-02-20 00:21:00,
2013-02-20 00:31:00,43.0,18.0,-100.00,ESE,118,3.0,4.0,35,-99.99,,,-99.99,,2013-02-20 00:31:00,
2013-02-20 00:41:00,43.0,18.0,-100.00,ESE,118,3.0,4.0,35,-99.99,,,-99.99,,2013-02-20 00:41:00,
2013-02-20 00:51:00,44.0,18.0,-100.00,East,83,1.0,1.0,33,-99.99,,,-99.99,,2013-02-20 00:51:00,
2013-02-20 01:02:00,44.0,18.0,-100.00,East,83,1.0,1.0,33,-99.99,,,-99.99,,2013-02-20 01:02:00,
2013-02-20 01:11:00,43.0,15.0,-100.00,NNE,19,3.0,3.0,31,-99.99,,,-99.99,,2013-02-20 01:11:00,
2013-02-20 01:21:00,43.0,17.0,-100.00,NNE,14,5.0,7.0,33,-99.99,,,-99.99,,2013-02-20 01:21:00,
2013-02-20 01:31:00,43.0,17.0,-100.00,NNE,14,5.0,7.0,33,-99.99,,,-99.99,,2013-02-20 01:31:00,
2013-02-20 01:41:00,42.0,16.0,-100.00,NNE,32,6.0,6.0,35,-99.99,,,-99.99,,2013-02-20 01:41:00,
2013-02-20 01:51:00,42.0,16.0,-100.00,North,2,4.0,6.0,33,-99.99,,,-99.99,,2013-02-20 01:51:00,
2013-02-20 02:01:00,40.0,16.0,-100.00,ENE,62,0.0,3.0,37,-99.99,,,-99.99,,2013-02-20 02:01:00,
2013-02-20 02:11:00,38.0,19.0,-100.00,ESE,110,4.0,4.0,46,-99.99,,,-99.99,,2013-02-20 02:11:00,
2013-02-20 02:21:00,37.0,20.0,-100.00,South,184,3.0,4.0,51,-99.99,,,-99.99,,2013-02-20 02:21:00,
2013-02-20 02:31:00,37.0,18.0,-100.00,SE,126,2.0,5.0,44,-99.99,,,-99.99,,2013-02-20 02:31:00,
2013-02-20 02:41:00,39.0,16.0,-100.00,SE,124,2.0,4.0,39,-99.99,,,-99.99,,2013-02-20 02:41:00,
2013-02-20 02:52:00,38.0,18.0,-100.00,SE,146,3.0,4.0,44,-99.99,,,-99.99,,2013-02-20 02:52:00,
2013-02-20 03:01:00,36.0,18.0,-100.00,ESE,106,4.0,5.0,47,-99.99,,,-99.99,,2013-02-20 03:01:00,
2013-02-20 03:12:00,36.0,18.0,-100.00,ESE,103,6.0,6.0,48,-99.99,,,-99.99,,2013-02-20 03:12:00,
2013-02-20 03:21:00,36.0,17.0,-100.00,ESE,121,2.0,6.0,45,-99.99,,,-99.99,,2013-02-20 03:21:00,
2013-02-20 03:32:00,36.0,18.0,-100.00,East,92,3.0,4.0,46,-99.99,,,-99.99,,2013-02-20 03:32:00,
2013-02-20 03:41:00,37.0,18.0,-100.00,ENE,69,2.0,4.0,45,-99.99,,,-99.99,,2013-02-20 03:41:00,
2013-02-20 03:51:00,38.0,16.0,-100.00,East,91,2.0,4.0,40,-99.99,,,-99.99,,2013-02-20 03:51:00,
2013-02-20 04:01:00,39.0,14.0,-100.00,East,88,3.0,3.0,34,-99.99,,,-99.99,,2013-02-20 04:01:00,
2013-02-20 04:11:00,37.0,17.0,-100.00,ESE,102,6.0,6.0,43,-99.99,,,-99.99,,2013-02-20 04:11:00,
2013-02-20 04:21:00,37.0,16.0,-100.00,ESE,114,5.0,6.0,43,-99.99,,,-99.99,,2013-02-20 04:21:00,
2013-02-20 04:31:00,37.0,16.0,-100.00,ESE,114,5.0,6.0,43,-99.99,,,-99.99,,2013-02-20 04:31:00,
2013-02-20 04:41:00,38.0,17.0,-100.00,SE,146,4.0,7.0,42,-99.99,,,-99.99,,2013-02-20 04:41:00,
2013-02-20 04:51:00,37.0,17.0,-100.00,SE,144,3.0,6.0,44,-99.99,,,-99.99,,2013-02-20 04:51:00,
2013-02-20 05:01:00,36.0,18.0,-100.00,SSE,160,3.0,4.0,47,-99.99,,,-99.99,,2013-02-20 05:01:00,
2013-02-20 05:12:00,36.0,18.0,-100.00,SSE,160,3.0,4.0,47,-99.99,,,-99.99,,2013-02-20 05:12:00,
2013-02-20 05:22:00,36.0,17.0,-100.00,ESE,122,3.0,3.0,46,-99.99,,,-99.99,,2013-02-20 05:22:00,
2013-02-20 05:31:00,36.0,17.0,-100.00,ESE,122,3.0,3.0,46,-99.99,,,-99.99,,2013-02-20 05:31:00,
2013-02-20 05:42:00,36.0,17.0,-100.00,ESE,121,4.0,6.0,46,-99.99,,,-99.99,,2013-02-20 05:42:00,
2013-02-20 05:52:00,35.0,16.0,-100.00,SSE,150,5.0,5.0,44,-99.99,,,-99.99,,2013-02-20 05:52:00,
2013-02-20 06:01:00,36.0,17.0,-100.00,SE,139,4.0,5.0,44,-99.99,,,-99.99,,2013-02-20 06:01:00,
2013-02-20 06:11:00,36.0,17.0,-100.00,SE,132,3.0,4.0,45,-99.99,,,-99.99,,2013-02-20 06:11:00,
2013-02-20 06:21:00,36.0,15.0,-100.00,NNE,15,6.0,6.0,40,-99.99,,,-99.99,,2013-02-20 06:21:00,
2013-02-20 06:31:00,35.0,17.0,-100.00,NE,42,1.0,2.0,47,-99.99,,,-99.99,,2013-02-20 06:31:00,
2013-02-20 06:42:00,35.0,17.0,-100.00,ESE,120,3.0,3.0,48,-99.99,,,-99.99,,2013-02-20 06:42:00,
2013-02-20 06:51:00,35.0,15.0,-100.00,ENE,74,2.0,3.0,43,-99.99,,,-99.99,,2013-02-20 06:51:00,
2013-02-20 07:01:00,38.0,12.0,-100.00,NE,38,2.0,3.0,34,-99.99,,,-99.99,,2013-02-20 07:01:00,
2013-02-20 07:11:00,35.0,17.0,-100.00,NE,47,6.0,6.0,48,-99.99,,,-99.99,,2013-02-20 07:11:00,
2013-02-20 07:21:00,35.0,17.0,-100.00,NE,47,6.0,6.0,48,-99.99,,,-99.99,,2013-02-20 07:21:00,
2013-02-20 07:31:00,35.0,17.0,-100.00,NE,47,6.0,6.0,48,-99.99,,,-99.99,,2013-02-20 07:31:00,
2013-02-20 07:41:00,34.0,19.0,-100.00,NNE,23,6.0,7.0,52,-99.99,,,-99.99,,2013-02-20 07:41:00,
2013-02-20 07:51:00,34.0,19.0,-100.00,NNE,23,6.0,7.0,52,-99.99,,,-99.99,,2013-02-20 07:51:00,
2013-02-20 08:01:00,35.0,18.0,-100.00,NNE,21,6.0,6.0,49,-99.99,,,-99.99,,2013-02-20 08:01:00,
2013-02-20 08:11:00,36.0,16.0,-100.00,ENE,77,4.0,5.0,43,-99.99,,,-99.99,,2013-02-20 08:11:00,
2013-02-20 08:21:00,35.0,17.0,-100.00,NNW,344,3.0,4.0,46,-99.99,,,-99.99,,2013-02-20 08:21:00,
2013-02-20 08:31:00,35.0,17.0,-100.00,NNW,344,3.0,4.0,46,-99.99,,,-99.99,,2013-02-20 08:31:00,
2013-02-20 08:41:00,35.0,16.0,-100.00,NE,36,9.0,9.0,44,-99.99,,,-99.99,,2013-02-20 08:41:00,
2013-02-20 08:52:00,36.0,16.0,-100.00,NNE,25,8.0,8.0,45,-99.99,,,-99.99,,2013-02-20 08:52:00,
2013-02-20 09:01:00,36.0,16.0,-100.00,NNE,18,9.0,10.0,43,-99.99,,,-99.99,,2013-02-20 09:01:00,
2013-02-20 09:11:00,35.0,16.0,-100.00,North,357,8.0,11.0,45,-99.99,,,-99.99,,2013-02-20 09:11:00,
2013-02-20 09:21:00,34.0,18.0,-100.00,NNW,340,3.0,6.0,51,-99.99,,,-99.99,,2013-02-20 09:21:00,
2013-02-20 09:31:00,34.0,18.0,-100.00,NNW,340,3.0,6.0,51,-99.99,,,-99.99,,2013-02-20 09:31:00,
2013-02-20 09:41:00,34.0,17.0,-100.00,NNW,345,2.0,3.0,50,-99.99,,,-99.99,,2013-02-20 09:41:00,
2013-02-20 09:51:00,34.0,17.0,-100.00,NNW,345,2.0,3.0,50,-99.99,,,-99.99,,2013-02-20 09:51:00,
2013-02-20 10:01:00,35.0,16.0,-100.00,North,8,3.0,5.0,46,-99.99,,,-99.99,,2013-02-20 10:01:00,
2013-02-20 10:12:00,34.0,16.0,-100.00,NE,47,4.0,4.0,47,-99.99,,,-99.99,,2013-02-20 10:12:00,
2013-02-20 10:21:00,35.0,16.0,-100.00,NE,56,3.0,4.0,44,-99.99,,,-99.99,,2013-02-20 10:21:00,
2013-02-20 10:31:00,35.0,16.0,-100.00,NNE,15,3.0,4.0,45,-99.99,,,-99.99,,2013-02-20 10:31:00,
2013-02-20 10:41:00,35.0,15.0,-100.00,NE,46,4.0,4.0,44,-99.99,,,-99.99,,2013-02-20 10:41:00,
2013-02-20 10:51:00,35.0,17.0,-100.00,WNW,301,2.0,2.0,48,-99.99,,,-99.99,,2013-02-20 10:51:00,
2013-02-20 11:02:00,34.0,17.0,-100.00,NNE,16,1.0,3.0,49,-99.99,,,-99.99,,2013-02-20 11:02:00,
2013-02-20 11:11:00,34.0,16.0,-100.00,ENE,60,2.0,3.0,47,-99.99,,,-99.99,,2013-02-20 11:11:00,
2013-02-20 11:21:00,34.0,16.0,-100.00,East,89,3.0,4.0,47,-99.99,,,-99.99,,2013-02-20 11:21:00,
2013-02-20 11:31:00,32.0,17.0,-100.00,East,96,3.0,4.0,51,-99.99,,,-99.99,,2013-02-20 11:31:00,
2013-02-20 11:41:00,32.0,18.0,-100.00,East,100,4.0,5.0,55,-99.99,,,-99.99,,2013-02-20 11:41:00,
2013-02-20 11:52:00,32.0,18.0,-100.00,East,100,4.0,5.0,55,-99.99,,,-99.99,,2013-02-20 11:52:00,
2013-02-20 12:01:00,32.0,18.0,-100.00,East,100,4.0,5.0,55,-99.99,,,-99.99,,2013-02-20 12:01:00,
2013-02-20 12:11:00,33.0,17.0,-100.00,ENE,72,5.0,7.0,49,-99.99,,,-99.99,,2013-02-20 12:11:00,
2013-02-20 12:21:00,33.0,17.0,-100.00,ENE,72,5.0,7.0,49,-99.99,,,-99.99,,2013-02-20 12:21:00,
2013-02-20 12:31:00,34.0,16.0,-100.00,NE,35,4.0,4.0,47,-99.99,,,-99.99,,2013-02-20 12:31:00,
2013-02-20 12:42:00,34.0,17.0,-100.00,NE,45,4.0,6.0,49,-99.99,,,-99.99,,2013-02-20 12:42:00,
2013-02-20 12:52:00,34.0,17.0,-100.00,NE,45,4.0,6.0,49,-99.99,,,-99.99,,2013-02-20 12:52:00,
2013-02-20 13:01:00,33.0,17.0,-100.00,NE,56,4.0,5.0,51,-99.99,,,-99.99,,2013-02-20 13:01:00,
2013-02-20 13:11:00,33.0,19.0,-100.00,NE,45,5.0,6.0,54,-99.99,,,-99.99,,2013-02-20 13:11:00,
2013-02-20 13:22:00,33.0,19.0,-100.00,NE,37,3.0,5.0,56,-99.99,,,-99.99,,2013-02-20 13:22:00,
2013-02-20 13:31:00,33.0,19.0,-100.00,NE,37,3.0,5.0,56,-99.99,,,-99.99,,2013-02-20 13:31:00,
2013-02-20 13:42:00,33.0,19.0,-100.00,NE,37,3.0,5.0,56,-99.99,,,-99.99,,2013-02-20 13:42:00,
2013-02-20 13:51:00,33.0,19.0,-100.00,NE,37,3.0,5.0,56,-99.99,,,-99.99,,2013-02-20 13:51:00,
2013-02-20 14:01:00,33.0,22.0,-100.00,NE,44,5.0,5.0,63,-99.99,,,-99.99,,2013-02-20 14:01:00,
2013-02-20 14:11:00,33.0,22.0,-100.00,NE,44,5.0,5.0,63,-99.99,,,-99.99,,2013-02-20 14:11:00,
2013-02-20 14:21:00,32.0,21.0,-100.00,NE,45,7.0,7.0,64,-99.99,,,-99.99,,2013-02-20 14:21:00,
2013-02-20 14:32:00,32.0,21.0,-100.00,NNE,21,6.0,7.0,63,-99.99,,,-99.99,,2013-02-20 14:32:00,
2013-02-20 14:42:00,32.0,21.0,-100.00,NNE,21,6.0,7.0,63,-99.99,,,-99.99,,2013-02-20 14:42:00,
2013-02-20 14:52:00,31.0,21.0,-100.00,NNE,33,7.0,8.0,65,-99.99,,,-99.99,,2013-02-20 14:52:00,
2013-02-20 15:01:00,31.0,20.0,-100.00,North,11,6.0,7.0,62,-99.99,,,-99.99,,2013-02-20 15:01:00,
2013-02-20 15:11:00,31.0,20.0,-100.00,North,11,6.0,7.0,62,-99.99,,,-99.99,,2013-02-20 15:11:00,
2013-02-20 15:22:00,30.0,20.0,-100.00,North,1,4.0,5.0,67,-99.99,,,-99.99,,2013-02-20 15:22:00,
2013-02-20 15:31:00,31.0,20.0,-100.00,NNE,26,8.0,8.0,65,-99.99,,,-99.99,,2013-02-20 15:31:00,
2013-02-20 15:41:00,31.0,20.0,-100.00,NNE,26,8.0,8.0,65,-99.99,,,-99.99,,2013-02-20 15:41:00,
2013-02-20 15:51:00,33.0,21.0,-100.00,NNE,18,9.0,11.0,60,-99.99,,,-99.99,,2013-02-20 15:51:00,
2013-02-20 16:01:00,34.0,23.0,-100.00,NNE,21,10.0,12.0,63,-99.99,,,-99.99,,2013-02-20 16:01:00,
2013-02-20 16:11:00,34.0,23.0,-100.00,NNE,22,11.0,13.0,63,-99.99,,,-99.99,,2013-02-20 16:11:00,
2013-02-20 16:21:00,34.0,23.0,-100.00,NNE,23,9.0,11.0,62,-99.99,,,-99.99,,2013-02-20 16:21:00,
2013-02-20 16:32:00,34.0,23.0,-100.00,NNE,23,9.0,11.0,62,-99.99,,,-99.99,,2013-02-20 16:32:00,
2013-02-20 16:41:00,34.0,23.0,-100.00,NNE,23,9.0,11.0,62,-99.99,,,-99.99,,2013-02-20 16:41:00,
2013-02-20 16:51:00,33.0,23.0,-100.00,North,5,4.0,6.0,65,-99.99,,,-99.99,,2013-02-20 16:51:00,
2013-02-20 17:01:00,34.0,24.0,-100.00,North,3,5.0,8.0,66,-99.99,,,-99.99,,2013-02-20 17:01:00,
2013-02-20 17:11:00,34.0,24.0,-100.00,North,3,5.0,8.0,66,-99.99,,,-99.99,,2013-02-20 17:11:00,
2013-02-20 17:21:00,34.0,23.0,-100.00,North,359,4.0,5.0,63,-99.99,,,-99.99,,2013-02-20 17:21:00,
2013-02-20 17:32:00,34.0,23.0,-100.00,North,359,4.0,5.0,63,-99.99,,,-99.99,,2013-02-20 17:32:00,
2013-02-20 17:41:00,35.0,23.0,-100.00,NW,310,2.0,4.0,60,-99.99,,,-99.99,,2013-02-20 17:41:00,
2013-02-20 17:52:00,35.0,22.0,-100.00,NW,323,3.0,4.0,59,-99.99,,,-99.99,,2013-02-20 17:52:00,
2013-02-20 18:02:00,35.0,22.0,-100.00,NW,323,3.0,4.0,59,-99.99,,,-99.99,,2013-02-20 18:02:00,
2013-02-20 18:11:00,35.0,23.0,-100.00,NW,326,4.0,5.0,60,-99.99,,,-99.99,,2013-02-20 18:11:00,
2013-02-20 18:21:00,37.0,24.0,-100.00,WNW,286,2.0,4.0,59,-99.99,,,-99.99,,2013-02-20 18:21:00,
2013-02-20 18:31:00,37.0,23.0,-100.00,WNW,301,2.0,4.0,55,-99.99,,,-99.99,,2013-02-20 18:31:00,
2013-02-20 18:41:00,37.0,23.0,-100.00,WNW,301,2.0,4.0,55,-99.99,,,-99.99,,2013-02-20 18:41:00,
2013-02-20 18:51:00,38.0,22.0,-100.00,NW,322,2.0,4.0,51,-99.99,,,-99.99,,2013-02-20 18:51:00,
2013-02-20 19:01:00,38.0,22.0,-100.00,NNW,330,2.0,5.0,52,-99.99,,,-99.99,,2013-02-20 19:01:00,
2013-02-20 19:11:00,38.0,22.0,-100.00,NW,311,4.0,5.0,51,-99.99,,,-99.99,,2013-02-20 19:11:00,
2013-02-20 19:21:00,39.0,22.0,-100.00,NNW,342,3.0,4.0,50,-99.99,,,-99.99,,2013-02-20 19:21:00,
2013-02-20 19:31:00,41.0,23.0,-100.00,NNE,13,5.0,5.0,47,-99.99,,,-99.99,,2013-02-20 19:31:00,
2013-02-20 19:41:00,41.0,23.0,-100.00,NNE,13,5.0,5.0,47,-99.99,,,-99.99,,2013-02-20 19:41:00,
2013-02-20 19:51:00,41.0,22.0,-100.00,NE,45,7.0,8.0,45,-99.99,,,-99.99,,2013-02-20 19:51:00,
2013-02-20 20:01:00,41.0,22.0,-100.00,NE,45,7.0,8.0,45,-99.99,,,-99.99,,2013-02-20 20:01:00,
2013-02-20 20:11:00,42.0,25.0,-100.00,NNE,16,4.0,8.0,50,-99.99,,,-99.99,,2013-02-20 20:11:00,
2013-02-20 20:21:00,42.0,25.0,-100.00,NNE,16,4.0,8.0,50,-99.99,,,-99.99,,2013-02-20 20:21:00,
2013-02-20 20:31:00,42.0,25.0,-100.00,NNE,16,4.0,8.0,50,-99.99,,,-99.99,,2013-02-20 20:31:00,
2013-02-20 20:41:00,42.0,26.0,-100.00,North,349,5.0,9.0,53,-99.99,,,-99.99,,2013-02-20 20:41:00,
2013-02-20 20:51:00,43.0,27.0,-100.00,North,8,6.0,8.0,54,-99.99,,,-99.99,,2013-02-20 20:51:00,
2013-02-20 21:01:00,43.0,27.0,-100.00,North,8,6.0,8.0,54,-99.99,,,-99.99,,2013-02-20 21:01:00,
2013-02-20 21:11:00,42.0,24.0,-100.00,NNW,346,7.0,9.0,48,-99.99,,,-99.99,,2013-02-20 21:11:00,
2013-02-20 21:21:00,42.0,26.0,-100.00,North,5,5.0,9.0,51,-99.99,,,-99.99,,2013-02-20 21:21:00,
2013-02-20 21:31:00,42.0,25.0,-100.00,North,6,8.0,10.0,49,-99.99,,,-99.99,,2013-02-20 21:31:00,
2013-02-20 21:41:00,40.0,25.0,-100.00,North,9,9.0,10.0,54,-99.99,,,-99.99,,2013-02-20 21:41:00,
2013-02-20 21:51:00,39.0,25.0,-100.00,NNE,20,10.0,12.0,55,-99.99,,,-99.99,,2013-02-20 21:51:00,
2013-02-20 22:01:00,39.0,27.0,-100.00,NNE,22,9.0,13.0,61,-99.99,,,-99.99,,2013-02-20 22:01:00,
2013-02-20 22:11:00,38.0,26.0,-100.00,NE,38,12.0,14.0,60,-99.99,,,-99.99,,2013-02-20 22:11:00,
2013-02-20 22:21:00,39.0,27.0,-100.00,NNE,17,11.0,12.0,62,-99.99,,,-99.99,,2013-02-20 22:21:00,
2013-02-20 22:31:00,39.0,27.0,-100.00,NNE,17,11.0,12.0,62,-99.99,,,-99.99,,2013-02-20 22:31:00,
2013-02-20 22:41:00,38.0,26.0,-100.00,NNE,24,12.0,14.0,61,-99.99,,,-99.99,,2013-02-20 22:41:00,
2013-02-20 22:51:00,38.0,26.0,-100.00,NNE,15,9.0,13.0,63,-99.99,,,-99.99,,2013-02-20 22:51:00,
2013-02-20 23:01:00,37.0,26.0,-100.00,North,9,10.0,13.0,63,-99.99,,,-99.99,,2013-02-20 23:01:00,
2013-02-20 23:12:00,37.0,26.0,-100.00,NNE,24,9.0,11.0,64,-99.99,,,-99.99,,2013-02-20 23:12:00,
2013-02-20 23:22:00,36.0,27.0,-100.00,NNE,15,11.0,13.0,67,-99.99,,,-99.99,,2013-02-20 23:22:00,
2013-02-20 23:31:00,36.0,27.0,-100.00,NNE,15,11.0,13.0,67,-99.99,,,-99.99,,2013-02-20 23:31:00,
2013-02-20 23:42:00,37.0,29.0,-100.00,North,6,7.0,10.0,72,-99.99,,,-99.99,,2013-02-20 23:42:00,
2013-02-20 23:52:00,37.0,29.0,-100.00,North,6,7.0,10.0,72,-99.99,,,-99.99,,2013-02-20 23:52:00,